Location: ??
(35.4032°N, 139.3073°E)
Time: 11:13:56
(UTC+00:00)

Thor Agena Rocket - Pass Details

Date: 13 April 2024
Orbit: 757 x 805 km, 99.1° (Epoch: 21 May)

Event Time Altitude Azimuth Distance (km) Brightness Sun altitude
Rises 18:39:09 0° 7° (N) 3,220 7.2 -18.6°
Reaches altitude 10° 18:41:30 10° 3° (N) 2,290 6.3 -18.2°
Maximum altitude 18:46:22 53° 287° (WNW) 930 3.6 -17.3°
Enters shadow 18:49:00 26° 223° (SW) 1,464 4.4 -16.8°
